Wind_Speed
32 32 32 32 32 32 32 33 34 34 35 35 36 36 37 38 39 40 40 41 42 43 44 45 45 46 47 48 49 50 50 51 52 53 53 54 54 54 54 54 53 53 52 51 51 51 51 51 50 50 50 50 50 50 49 49 49 49 50 50 50 51 51 52 52 53 54 54 55 55 56 56 56 56 57 56 57 57 57 57 57 57 57 57 58 58
34 33 33 33 33 33 33 34 34 35 36 36 37 37 38 39 39 40 41 42 43 43 44 45 46 46 47 48 49 50 51 51 52 53 53 54 54 54 54 53 53 52 51 50 50 50 50 49 49 49 49 49 49 49 48 48 48 49 49 49 50 50 51 51 52 52 53 53 54 54 55 55 55 55 56 56 56 56 56 56 56 57 57 57 58 58
35 35 34 34 34 35 35 35 35 36 37 38 38 38 39 40 40 41 41 42 43 44 45 46 46 47 48 49 49 50 51 52 53 53 54 54 54 55 54 54 53 52 51 51 50 49 49 49 48 48 48 48 47 47 47 47 48 48 48 49 49 50 50 51 51 52 52 52 53 53 53 54 54 54 54 55 55 55 55 56 56 56 57 57 58 58
36 36 36 36 36 36 36 37 37 37 38 39 39 40 40 41 41 42 43 44 44 45 46 47 48 49 49 50 51 52 53 53 54 55 55 56 56 56 56 55 55 54 53 52 51 50 49 48 48 47 47 46 46 46 46 46 46 47 47 48 48 49 49 50 50 50 51 51 51 52 52 52 53 53 53 54 54 54 55 55 55 56 56 57 57 58
37 37 37 37 37 37 37 38 38 39 39 40 40 41 42 42 43 44 44 45 46 47 48 49 50 51 51 52 53 54 55 55 56 57 57 58 58 58 58 57 56 55 54 53 52 50 49 48 47 46 45 44 44 44 44 44 45 45 46 46 47 47 48 48 48 49 49 49 50 50 50 51 51 52 52 53 53 54 54 55 55 56 56 57 57 58
38 38 38 38 38 38 39 39 39 40 41 41 42 42 43 44 45 45 46 47 48 49 50 51 52 53 54 54 55 56 57 57 58 59 59 60 60 59 59 58 58 56 55 54 52 51 49 48 46 45 44 43 43 42 42 43 43 44 44 45 45 45 46 46 46 47 47 47 48 48 49 49 50 51 51 52 52 53 54 54 55 55 56 57 57 58
39 39 39 39 39 40 40 40 40 41 42 43 43 43 44 45 46 47 48 49 50 51 52 53 54 55 56 57 57 58 59 59 60 60 61 61 61 61 60 59 58 57 56 54 53 51 49 48 46 44 43 42 41 41 41 41 41 42 42 42 43 43 43 44 44 44 45 45 46 46 47 48 49 49 50 51 52 53 53 54 54 55 55 56 57 57
39 40 40 40 40 40 40 41 41 42 44 44 45 45 46 46 47 49 50 51 52 53 54 55 56 56 57 58 59 60 60 61 61 62 62 62 62 62 61 60 59 58 56 55 53 51 49 48 46 44 43 42 41 40 40 40 40 40 40 40 40 41 41 41 42 42 43 43 44 45 46 47 48 48 49 50 51 52 52 53 54 54 55 55 56 56
40 40 40 41 41 41 41 41 42 43 45 46 46 47 48 49 49 50 51 53 54 55 56 56 57 58 59 59 60 61 61 62 62 63 63 63 63 62 62 61 60 58 57 55 54 52 50 48 46 45 43 42 41 40 39 39 39 39 38 38 38 38 39 39 40 40 41 42 43 44 45 46 47 47 48 49 50 51 52 52 53 53 54 54 55 55
41 41 41 41 42 42 43 43 43 44 45 47 48 49 50 51 52 53 53 54 54 55 56 57 58 59 59 60 61 61 62 63 63 63 63 63 63 63 62 61 60 59 57 56 54 52 50 48 46 45 43 42 41 40 40 39 38 38 37 37 36 37 37 38 38 39 40 41 42 43 44 45 46 47 47 48 49 50 50 51 52 52 53 53 53 54
42 42 42 42 42 43 43 44 45 46 47 48 49 50 51 53 54 55 55 55 55 56 57 58 59 59 60 61 61 62 63 63 63 64 64 64 63 63 62 61 60 59 57 56 54 52 50 48 46 45 43 42 41 41 40 39 38 37 36 36 36 36 36 37 37 38 39 40 41 42 43 44 45 46 46 47 48 48 49 50 50 51 51 51 52 52
42 43 43 43 43 44 44 45 46 47 48 49 50 51 52 53 55 56 57 57 57 57 57 58 59 60 61 61 62 63 63 63 64 64 64 64 64 63 62 61 60 58 57 55 53 51 49 47 46 45 44 43 42 41 40 39 38 37 36 35 35 35 36 36 37 38 39 40 41 42 43 43 44 45 45 46 46 47 48 48 49 49 50 50 50 50
43 43 44 44 44 45 46 47 48 49 50 51 52 53 54 54 55 56 57 57 58 58 58 59 60 61 61 62 62 63 63 64 64 64 64 64 63 63 62 61 59 58 56 55 53 51 49 47 46 45 44 43 42 41 40 39 38 37 36 35 35 36 36 37 37 38 39 40 41 42 42 43 43 44 45 45 45 46 46 47 47 48 48 48 48 48
44 44 45 45 45 46 47 48 49 50 51 52 53 54 55 55 55 56 57 58 58 58 59 60 61 61 62 62 62 63 63 63 64 64 64 63 63 62 61 60 59 57 55 54 52 50 48 47 46 45 44 43 42 41 40 39 38 37 36 36 36 36 36 37 38 38 39 40 41 41 42 43 43 44 44 45 45 45 46 46 47 47 47 47 47 47
45 45 46 46 46 47 48 49 50 51 52 53 54 55 55 56 56 56 57 58 58 59 60 61 62 62 62 62 62 62 63 63 63 63 63 63 62 61 59 59 58 56 54 53 52 50 48 47 46 45 45 43 42 41 40 39 38 36 36 36 36 36 37 37 38 39 39 40 41 42 42 43 43 44 44 44 45 45 45 46 46 46 47 47 47 47
46 46 47 47 47 48 49 50 51 52 53 53 54 55 56 56 56 57 57 58 59 60 60 61 62 63 63 62 62 62 61 62 63 63 62 62 61 60 58 57 56 56 54 52 51 50 49 47 46 46 45 44 42 41 40 38 37 36 36 36 36 37 37 38 38 39 40 40 41 42 42 43 43 44 44 44 45 45 45 46 46 47 47 47 47 47
47 47 47 48 48 49 49 50 51 52 53 54 55 55 56 57 57 57 58 59 59 60 61 61 62 62 63 63 62 61 61 61 62 62 61 61 60 59 56 55 55 55 54 52 51 50 49 48 47 46 45 43 42 40 39 38 37 36 36 36 37 37 38 38 39 40 40 41 41 42 42 43 43 43 44 44 45 45 46 46 47 47 47 47 47 47
48 48 48 49 49 49 50 51 52 53 54 55 55 56 56 57 57 58 58 59 59 60 61 61 62 62 62 62 61 61 60 60 60 61 61 60 59 57 55 54 54 54 53 52 50 49 48 48 47 46 44 43 41 40 38 37 36 36 36 37 37 38 38 39 39 40 40 41 41 42 42 42 43 43 44 44 45 45 46 46 47 47 47 47 47 47
48 48 49 49 50 50 51 51 52 53 55 55 56 56 57 57 57 58 58 59 59 59 60 60 61 61 61 61 61 60 59 58 59 59 59 59 58 57 54 53 53 53 52 51 50 49 48 47 46 45 44 42 41 39 37 36 36 36 37 37 38 38 39 39 39 40 40 41 41 41 42 42 43 43 44 44 45 45 46 46 47 47 47 47 47 47
49 49 49 50 50 51 51 52 52 54 55 56 56 57 57 57 57 58 58 58 59 59 60 60 60 60 60 60 60 59 57 57 57 57 58 58 57 55 53 52 52 52 52 50 49 48 48 47 46 44 43 41 39 38 37 36 36 36 37 37 38 38 39 39 39 40 40 40 41 41 42 42 43 43 44 44 45 46 46 47 47 47 48 47 47 47
49 49 50 50 51 51 52 52 53 53 55 55 56 57 57 57 58 58 58 58 59 59 59 59 59 59 58 58 58 57 55 55 55 55 57 57 56 54 52 51 52 52 51 50 48 47 47 46 45 44 42 40 39 37 36 36 36 36 37 37 38 38 39 39 39 40 40 41 41 42 42 43 43 44 44 45 46 46 47 47 48 48 48 48 48 48
50 50 50 50 51 52 52 52 53 54 54 55 56 57 57 57 57 57 58 58 58 58 57 57 57 57 57 56 56 55 54 53 53 54 55 56 55 54 52 51 51 51 50 49 48 47 46 45 44 42 41 39 38 37 36 36 36 37 37 37 38 38 39 39 39 40 40 41 41 42 42 43 44 44 45 46 46 47 47 48 48 48 48 48 48 48
51 51 51 51 51 52 52 53 53 54 55 55 56 56 56 56 57 57 57 57 56 56 56 56 56 56 56 55 55 54 53 52 52 52 53 54 54 53 51 50 50 50 50 48 47 46 46 44 43 41 40 38 37 36 36 36 36 37 37 37 38 38 39 39 39 40 41 41 42 42 43 43 44 44 45 45 46 46 47 47 47 48 47 47 47 47
51 51 51 51 51 52 52 53 53 54 55 55 55 56 56 56 56 56 56 56 55 55 55 55 56 56 56 55 54 53 52 50 50 51 52 53 53 52 50 49 49 50 49 48 46 46 45 44 42 40 39 37 36 36 36 36 36 36 37 37 38 38 39 39 40 40 41 41 41 42 42 43 43 44 44 45 45 45 46 46 46 46 46 46 46 46
51 51 51 51 52 52 53 53 54 54 54 55 55 55 55 56 56 56 56 55 55 54 55 55 55 55 54 53 52 51 50 49 49 49 50 52 52 51 50 48 49 49 49 47 46 45 44 43 41 39 37 36 36 35 35 36 36 36 37 37 38 38 39 39 40 40 40 40 41 41 41 41 42 42 43 43 43 44 44 44 44 45 45 45 45 45
51 51 51 51 52 52 53 53 54 54 55 55 55 55 55 55 55 55 55 54 53 53 54 54 54 54 53 52 51 50 49 48 48 48 48 50 51 51 49 48 48 48 48 47 45 44 43 42 40 38 37 36 35 35 35 35 36 36 37 37 38 38 39 39 39 39 39 39 39 39 39 39 40 40 41 41 41 41 42 42 42 43 43 43 43 43
51 51 51 52 52 53 53 54 54 54 55 55 55 54 54 54 54 54 53 52 52 52 52 52 52 52 52 51 50 49 48 47 47 47 47 48 50 50 49 48 47 48 47 46 45 43 42 41 39 38 36 35 35 35 35 35 36 36 37 37 38 38 37 37 37 37 36 36 36 36 37 37 37 38 38 38 38 39 39 39 40 40 41 41 41 41
51 52 52 52 52 53 54 54 54 54 54 54 54 53 53 52 52 51 51 50 50 50 51 51 51 51 51 50 49 48 47 46 45 46 46 47 48 48 48 47 47 47 47 46 44 42 41 40 39 37 36 35 34 34 34 35 35 36 37 37 36 36 35 35 34 34 34 34 34 34 34 35 35 35 36 36 36 37 37 37 38 39 39 40 40 40
51 51 52 52 53 53 54 54 54 54 54 53 53 52 51 50 49 49 49 49 48 48 49 49 49 49 49 50 49 48 46 44 44 45 46 47 48 48 47 46 46 46 46 46 44 41 39 37 37 37 36 35 34 34 34 34 35 35 35 35 34 33 32 32 32 31 31 31 32 32 32 33 33 34 34 35 35 35 36 37 38 38 39 40 40 40
51 51 52 52 53 53 54 54 54 53 53 52 51 51 50 49 48 47 47 47 47 47 48 48 48 48 48 49 49 47 45 43 43 43 45 46 47 47 46 46 45 45 45 45 44 42 38 35 35 35 35 34 33 33 33 34 34 34 33 33 32 31 30 30 29 29 29 30 30 31 31 32 33 33 34 34 35 35 36 37 38 39 40 40 40 40
51 52 52 52 53 53 53 54 53 53 52 51 50 49 48 47 47 46 46 46 46 46 46 47 47 47 47 47 47 47 45 43 42 42 44 45 46 46 45 45 45 44 43 44 44 43 40 37 34 34 34 34 33 32 32 32 32 32 31 30 29 28 28 28 28 28 29 29 30 30 31 32 33 33 34 34 35 36 36 37 38 39 40 41 41 41
51 52 52 52 53 53 53 53 53 52 51 50 49 48 47 46 46 45 45 45 45 45 45 46 46 46 45 45 45 45 44 43 42 42 43 45 45 45 44 44 44 43 42 42 42 43 42 40 37 35 34 33 32 31 31 30 30 30 29 29 28 27 27 27 28 28 29 29 30 30 31 32 33 33 34 34 35 35 36 37 38 39 40 41 41 41
51 52 52 52 53 53 53 52 52 51 50 49 48 47 46 46 45 45 44 44 44 44 44 45 45 45 45 45 44 44 43 42 42 42 43 44 45 45 44 44 43 43 42 41 41 41 41 41 39 37 34 32 31 30 29 28 28 28 27 27 27 27 27 28 28 29 29 30 30 31 31 32 32 33 33 34 34 35 35 36 37 38 39 40 41 41
51 52 52 52 53 52 52 52 51 50 49 48 47 47 46 45 45 44 44 44 44 44 44 44 44 44 44 44 44 43 42 41 41 42 43 44 45 45 44 43 42 42 41 41 40 40 39 39 38 37 35 32 29 28 27 27 26 26 26 27 27 27 28 28 29 29 30 30 31 31 31 32 32 32 33 33 34 34 34 35 36 36 37 38 39 40
52 52 52 52 52 52 51 51 50 49 48 47 47 46 46 45 45 44 44 43 43 44 43 43 43 43 43 43 43 43 42 41 40 41 42 43 44 44 44 42 42 41 41 41 40 39 38 37 36 35 34 32 29 26 25 25 25 25 25 26 27 28 28 29 29 30 30 31 31 31 32 32 32 32 32 33 33 33 33 34 34 35 35 36 37 38
52 52 52 52 52 51 51 50 49 48 47 47 46 46 45 45 44 44 43 43 43 43 43 43 43 42 42 42 42 42 42 41 40 40 41 42 42 43 43 42 41 40 40 40 39 38 37 35 34 33 32 31 29 26 24 24 24 25 25 26 26 27 28 29 30 31 31 31 31 32 32 32 32 32 32 32 32 32 32 33 33 33 34 34 35 36
52 52 52 52 51 50 50 49 48 47 46 46 46 45 45 44 44 43 43 43 43 42 42 42 42 42 41 41 41 41 41 41 40 40 40 41 41 41 41 40 40 39 39 38 37 36 35 34 33 32 30 30 28 27 25 25 24 25 25 25 26 27 28 29 30 31 31 31 32 32 32 32 32 32 32 32 31 31 31 32 32 32 33 33 34 34
52 52 52 51 50 49 48 48 47 46 45 45 45 44 44 43 43 43 43 42 42 42 42 41 41 41 40 40 40 40 40 40 39 39 39 39 39 39 39 39 38 37 37 36 35 35 34 33 32 31 29 28 27 27 27 27 26 26 25 25 26 26 27 28 29 30 31 31 31 31 32 32 32 32 32 32 32 31 31 31 32 32 32 32 33 33
51 51 51 50 49 48 47 46 46 45 45 44 44 43 43 43 42 42 42 42 42 41 41 40 40 40 39 39 39 38 38 38 38 38 38 38 38 38 38 38 37 36 35 34 33 33 32 32 31 30 29 28 27 26 26 27 28 28 27 26 26 26 26 28 29 30 30 31 31 31 31 32 32 32 32 32 32 33 33 33 33 33 33 33 32 32
50 50 49 49 48 47 46 45 45 44 44 43 43 43 42 42 42 42 42 41 41 41 40 40 39 39 38 38 37 37 37 37 37 37 37 37 37 37 37 36 35 34 33 32 31 31 31 30 30 29 29 29 28 27 27 27 28 29 29 29 27 26 26 27 28 29 30 31 31 32 32 32 32 32 32 32 33 34 34 34 34 34 34 34 33 32
49 49 48 47 46 45 45 44 44 43 43 42 42 42 42 42 42 42 41 41 40 40 39 39 39 38 38 37 36 36 36 36 36 36 35 35 35 35 35 35 34 32 31 30 29 29 29 29 28 28 28 28 28 28 28 28 28 29 30 30 29 28 27 27 28 29 30 31 31 32 32 32 31 31 32 32 33 34 34 35 35 35 34 34 34 33
48 47 47 46 45 44 44 43 43 42 42 41 41 41 41 41 41 41 41 40 40 39 39 38 38 38 37 36 36 35 35 35 35 34 34 34 34 33 33 33 32 30 29 28 28 27 27 27 26 27 27 28 28 29 28 28 28 29 30 31 31 30 29 28 28 29 30 30 31 31 32 32 31 31 32 32 33 33 34 34 35 34 34 34 33 32
47 46 45 44 44 43 43 42 41 41 41 41 41 41 41 41 41 41 40 40 39 38 38 38 37 37 37 36 35 35 34 34 33 33 33 32 32 32 31 30 29 28 28 27 26 25 25 25 25 26 27 28 28 29 29 29 29 29 30 31 31 31 30 29 29 29 29 30 31 31 31 31 31 31 31 32 33 33 34 34 34 34 34 33 33 32
46 45 44 43 43 42 42 41 41 41 41 41 41 41 41 41 41 40 40 39 38 38 37 37 37 37 36 36 35 34 34 33 32 31 31 31 31 30 29 28 27 27 26 26 25 24 23 23 24 25 26 27 28 29 29 29 29 29 29 30 31 31 31 31 30 30 30 30 30 31 31 32 32 32 32 32 33 33 34 34 34 34 33 33 33 32
44 44 43 42 42 41 41 41 41 41 41 41 41 41 41 40 40 40 39 38 38 37 37 36 36 36 36 35 35 34 33 32 31 30 29 29 29 29 28 26 26 25 25 24 24 23 23 23 24 25 26 27 28 29 29 30 30 30 30 29 30 30 30 30 31 31 30 30 31 31 32 32 32 32 32 32 33 33 33 34 34 34 34 33 33 33
43 42 42 42 41 41 41 41 41 41 41 41 40 40 40 40 39 39 38 37 37 36 36 36 36 36 36 35 35 34 33 31 30 28 28 27 27 27 26 25 24 24 24 23 22 22 23 23 24 25 26 27 27 28 28 29 30 30 30 29 29 29 29 29 30 30 31 31 31 32 32 33 33 33 33 33 33 33 33 34 34 35 34 34 34 33
42 41 41 41 41 41 41 41 41 41 41 41 40 40 39 39 39 38 37 37 36 35 35 35 35 35 35 35 34 33 32 31 29 27 26 26 25 25 24 24 23 23 22 22 21 21 22 23 24 25 26 27 27 27 27 28 29 30 30 30 29 29 29 29 29 30 30 31 32 33 34 34 34 34 34 34 33 33 33 34 34 35 35 35 34 34
40 40 40 40 40 40 41 41 41 41 41 40 40 39 39 38 37 37 37 36 35 35 34 35 34 34 34 34 33 33 32 30 29 27 25 24 24 23 23 22 22 22 21 21 20 21 21 22 23 25 26 27 27 27 27 28 28 29 29 30 29 29 29 28 29 29 30 31 32 33 34 35 35 35 35 34 34 33 33 33 34 35 35 35 35 35
39 39 39 40 40 40 40 41 41 41 40 40 39 39 38 37 36 36 35 35 34 34 34 34 34 34 33 32 32 31 31 29 28 26 24 23 23 22 22 21 21 20 20 20 20 20 21 21 22 24 25 26 26 27 27 27 28 28 29 29 29 29 29 29 29 29 30 31 31 32 33 34 35 35 35 35 34 34 33 33 34 34 35 35 35 35
38 38 39 39 40 40 40 41 41 40 40 39 38 38 37 36 35 35 34 34 33 33 33 33 33 33 32 32 31 30 29 28 26 25 23 22 22 21 21 21 20 19 19 19 19 20 20 20 21 22 24 25 26 26 27 27 28 28 28 29 29 29 30 29 29 30 30 30 31 31 32 33 34 34 35 35 35 34 34 33 33 34 35 35 35 35
38 38 39 39 40 40 40 40 40 40 39 38 37 37 36 35 34 34 33 33 32 32 32 32 32 32 32 31 30 29 28 26 25 23 22 22 21 21 21 20 19 19 19 19 19 20 20 20 20 20 21 24 25 26 26 27 28 28 28 28 29 29 30 30 30 30 30 30 31 31 31 32 33 33 34 35 35 35 34 34 33 34 34 35 35 35
Wind_Direction
315 314 313 313 313 313 314 315 315 315 315 316 316 317 317 317 317 318 318 317 317 317 316 316 315 315 314 314 313 313 312 312 312 311 311 310 310 310 309 309 308 308 308 308 307 307 306 306 305 304 304 303 302 301 300 299 298 296 295 294 293 292 291 290 289 288 288 288 287 287 287 286 286 286 286 286 285 285 285 286 286 286 286 286 287 287
315 314 313 313 313 313 313 314 315 315 315 316 316 317 317 317 318 318 318 318 318 317 317 316 316 316 315 315 314 314 313 313 313 312 312 311 310 310 309 309 308 308 308 308 307 307 307 306 305 305 304 303 302 301 300 298 297 296 294 293 292 291 290 289 288 288 287 287 286 286 285 285 285 285 285 285 285 285 285 285 285 286 286 286 286 286
314 313 313 312 312 313 313 314 314 315 315 316 316 317 317 317 318 318 318 318 318 318 318 317 317 317 317 316 316 315 315 314 314 313 313 312 311 311 310 310 309 309 309 309 308 308 307 307 306 305 304 303 302 301 299 298 296 294 293 292 291 290 289 288 287 287 286 285 285 285 284 284 284 284 284 284 284 284 285 285 285 285 286 286 286 286
313 312 312 312 312 313 313 314 314 315 315 316 316 317 317 318 318 318 319 319 319 319 319 319 319 318 318 318 317 317 317 316 316 315 314 314 313 312 312 311 311 310 310 310 310 309 308 308 307 306 304 303 301 300 298 296 294 293 292 290 289 289 288 287 286 286 285 284 284 284 284 283 283 283 284 284 284 284 284 285 285 285 285 285 285 286
313 312 312 312 312 312 313 314 314 314 315 315 316 317 317 318 318 318 319 319 320 320 320 320 320 320 320 319 319 319 318 317 317 316 316 315 314 313 313 312 312 312 311 311 310 310 309 308 307 306 304 302 300 298 296 294 293 291 290 289 288 287 286 286 285 284 284 283 283 283 283 283 283 283 283 283 284 284 284 284 284 285 285 285 285 285
312 312 312 312 312 312 313 313 314 314 314 315 315 316 317 317 318 319 320 320 321 321 322 322 321 321 321 320 320 319 319 318 318 317 317 316 315 314 314 313 313 312 312 311 311 311 310 309 307 306 304 302 299 297 295 293 291 290 289 288 287 286 285 285 284 283 283 282 282 282 282 282 282 283 283 283 283 284 284 284 284 285 285 285 285 285
311 311 311 311 311 311 312 313 313 314 314 314 315 316 317 318 319 320 321 322 322 322 322 322 322 322 322 321 321 320 320 319 318 318 317 316 315 315 314 313 313 313 312 312 312 311 311 309 308 306 304 302 299 297 295 293 291 290 289 288 287 286 285 284 283 283 282 282 282 282 282 282 282 282 283 283 283 283 284 284 284 285 285 285 285 285
310 310 310 310 310 310 311 312 313 314 314 314 315 316 317 318 320 321 322 322 323 323 323 323 322 322 322 321 321 320 320 319 318 318 317 316 315 315 314 314 313 313 313 313 312 312 311 310 309 307 305 303 301 299 297 295 293 292 291 289 288 287 286 284 283 283 282 282 282 282 282 282 282 282 283 283 283 284 284 284 284 285 285 285 285 285
309 309 308 309 309 310 310 311 312 313 313 314 316 317 318 320 320 321 322 322 323 323 323 322 322 322 322 321 321 320 319 319 318 317 316 316 315 314 314 314 314 313 313 313 313 313 313 312 310 309 307 305 303 301 300 298 296 295 293 291 290 288 286 285 284 283 283 282 282 282 282 282 282 282 283 283 283 284 284 284 284 284 285 285 285 285
307 307 307 308 308 309 310 311 312 313 314 315 316 318 319 320 321 321 322 322 323 323 322 322 322 322 321 321 320 320 319 318 317 317 316 315 315 314 314 314 314 314 314 314 314 314 313 313 311 310 308 307 305 304 302 301 300 298 296 294 292 289 287 286 284 284 283 282 282 282 282 282 282 283 283 283 283 284 284 284 284 284 284 284 284 285
306 306 307 307 308 309 310 311 312 313 314 315 317 318 319 320 321 321 321 322 323 322 322 321 321 321 321 320 320 319 318 318 317 316 315 315 314 314 314 314 314 314 314 314 314 314 314 313 312 310 308 307 306 305 305 304 302 301 298 296 293 290 288 286 285 284 284 283 283 283 283 283 283 283 284 284 284 284 284 284 284 284 285 285 285 285
305 306 306 307 308 309 310 311 312 313 314 316 317 318 319 319 320 320 320 321 322 322 321 321 321 321 320 319 319 318 318 317 316 316 315 314 314 314 314 314 314 314 314 314 314 314 313 312 311 310 309 308 307 307 306 306 304 302 300 297 294 291 289 288 286 286 285 285 285 285 285 285 285 285 285 285 285 285 285 285 285 285 286 286 286 286
305 305 306 306 308 309 310 311 312 313 314 315 316 317 318 319 319 319 320 320 321 321 321 320 320 320 320 319 318 317 317 316 315 315 315 314 314 314 313 313 313 313 314 314 313 313 313 312 311 309 309 309 309 308 308 307 306 303 301 298 295 293 291 289 289 288 288 288 288 288 288 288 288 287 287 287 287 287 287 287 287 287 287 287 287 287
304 305 305 307 308 309 310 311 312 312 314 315 316 316 317 318 318 319 319 320 320 320 320 319 319 320 319 319 318 317 316 315 315 314 314 314 314 313 313 313 313 313 313 313 313 313 312 312 311 310 310 310 310 310 309 308 306 304 301 298 296 294 293 292 292 292 291 291 291 291 291 291 290 290 290 289 289 289 289 289 289 289 289 289 289 288
304 304 305 306 308 309 309 310 311 312 313 314 315 316 316 317 318 318 318 318 319 319 319 319 319 319 319 318 317 316 315 314 314 314 314 313 313 313 313 313 313 313 313 313 313 313 312 312 311 311 311 311 311 311 310 309 307 304 302 299 298 297 296 295 295 295 295 294 294 294 293 293 292 292 292 292 291 291 291 291 291 291 291 290 290 290
303 304 305 306 307 308 309 309 310 311 312 313 314 315 315 316 317 317 317 317 318 318 318 318 318 319 319 318 317 315 314 313 313 313 313 313 313 312 313 313 312 312 313 313 313 313 313 312 312 311 312 312 312 312 311 309 307 304 302 301 300 299 299 298 298 297 297 296 296 296 295 295 294 294 294 294 294 293 293 293 293 292 292 292 292 291
302 303 304 305 306 307 307 308 309 310 312 312 313 314 315 315 316 316 317 317 317 317 317 317 317 317 318 318 317 315 314 313 312 312 312 312 312 312 313 313 313 313 313 313 313 313 313 312 312 312 312 313 312 312 311 309 307 305 304 303 302 301 301 300 300 299 299 298 298 297 297 296 296 296 296 296 295 295 295 295 294 294 293 293 293 293
302 303 304 305 305 306 306 307 309 310 311 312 313 313 314 315 315 316 316 316 316 316 316 316 316 316 316 316 316 315 313 312 312 312 312 312 312 312 313 313 313 313 313 313 313 313 312 312 312 312 313 313 313 312 311 309 307 306 305 304 304 303 302 301 301 300 300 299 299 298 298 297 297 297 297 296 296 296 295 295 294 294 293 293 293 293
302 302 303 304 304 305 306 307 308 309 310 311 312 313 314 314 315 315 315 315 315 315 315 315 315 315 315 315 315 314 313 312 312 311 311 311 312 312 313 313 313 312 312 313 313 312 312 311 312 312 313 313 313 312 311 309 308 307 306 305 305 304 303 302 302 301 301 300 300 299 299 298 298 297 297 297 296 296 295 294 294 293 293 292 292 292
301 302 302 303 303 304 305 307 308 309 310 311 312 312 313 314 314 314 314 314 314 314 314 315 315 315 314 314 314 314 313 312 311 310 310 310 311 312 313 314 313 312 311 312 312 312 311 311 312 312 313 313 312 311 310 310 309 308 307 306 305 304 304 303 303 302 302 301 300 300 299 299 298 298 297 296 296 295 294 293 293 292 292 292 291 291
300 301 301 302 303 304 305 306 308 309 310 310 311 312 312 313 313 313 313 313 314 314 314 314 314 313 313 313 313 312 312 311 310 310 310 310 311 312 313 313 312 311 311 311 311 311 311 311 312 312 313 312 312 311 311 310 309 309 308 307 306 305 305 304 303 303 302 301 301 300 300 299 298 298 297 296 296 295 294 293 293 292 292 292 291 291
300 300 301 301 302 304 305 306 307 308 309 310 311 311 312 312 312 312 313 313 313 313 313 312 312 312 312 312 312 312 311 311 311 311 310 310 311 312 313 312 311 310 310 311 311 311 311 311 312 312 312 312 311 311 311 311 311 310 309 308 307 306 305 305 304 303 303 302 302 301 300 300 299 298 297 297 296 295 294 293 293 292 292 292 291 291
299 300 300 301 302 303 305 306 307 308 309 309 310 310 311 311 311 311 312 312 312 312 311 311 312 312 312 312 312 312 312 312 312 312 311 311 311 312 312 312 311 310 310 310 311 311 311 311 311 312 312 311 312 312 313 312 312 310 309 308 307 307 306 306 305 304 304 303 303 302 301 301 300 299 297 296 295 295 294 293 293 292 292 292 291 291
298 299 300 301 302 303 304 305 306 307 308 309 309 309 310 310 310 311 311 311 311 311 311 311 311 312 312 312 312 312 312 313 312 312 311 311 311 311 312 312 311 310 309 310 311 311 311 311 311 311 312 312 313 314 314 313 312 311 309 309 308 308 307 307 307 306 306 305 304 303 302 301 300 298 297 296 295 294 294 293 293 293 292 292 291 291
297 298 299 300 301 302 304 305 306 307 307 308 308 309 309 309 310 311 311 311 311 311 311 311 311 311 312 312 312 312 312 312 311 311 311 310 310 310 311 311 310 309 309 310 311 311 311 311 311 312 312 313 315 315 315 314 312 311 310 310 310 310 310 309 309 309 308 307 305 304 303 301 300 298 297 296 295 295 294 294 294 293 293 292 291 291
296 297 298 299 301 302 303 304 305 306 307 308 308 308 309 309 310 311 311 311 311 310 310 310 311 311 312 312 311 311 311 311 311 311 311 310 310 310 311 311 310 309 309 310 311 311 311 311 311 312 313 315 316 316 315 314 313 312 312 312 312 312 312 312 311 310 309 308 306 304 303 301 300 299 298 297 297 297 296 296 295 295 294 293 292 292
296 297 298 299 301 302 303 304 305 306 307 308 308 309 309 310 310 311 311 310 310 310 309 309 310 311 311 310 310 309 310 310 311 311 311 310 309 309 310 310 310 310 310 310 311 311 311 311 312 313 314 316 316 316 316 315 315 314 314 315 315 315 315 314 312 311 310 308 307 305 304 303 302 301 301 300 300 300 299 299 298 297 296 295 294 293
296 297 298 300 301 302 303 304 305 306 307 307 308 309 309 309 310 310 310 309 309 308 308 308 309 309 309 309 308 308 309 310 311 311 311 309 308 309 310 310 310 310 311 311 310 310 310 311 312 313 315 316 317 318 318 317 317 316 316 317 317 317 316 315 313 312 311 309 308 307 306 306 305 305 305 305 304 304 303 302 301 300 299 298 297 296
296 297 298 299 301 302 303 304 305 305 306 307 308 308 308 309 309 308 308 308 307 307 307 307 307 307 307 307 307 308 309 311 311 311 310 309 308 308 310 310 310 311 311 311 310 309 310 311 312 314 315 317 319 319 320 319 318 318 318 318 318 318 317 316 315 314 313 312 311 311 310 310 310 310 310 310 310 309 308 307 306 304 303 301 300 300
295 296 297 299 300 301 302 303 304 305 306 307 308 308 308 308 308 307 307 306 306 305 306 306 306 306 306 307 307 308 309 311 311 311 310 309 308 308 310 310 311 311 311 311 310 309 310 311 313 315 317 319 320 321 321 321 320 319 319 319 320 320 319 318 317 316 316 316 315 315 315 315 315 315 315 315 314 314 313 311 310 308 306 305 304 303
295 296 297 298 299 301 302 303 304 305 306 307 307 307 307 307 306 306 305 305 305 304 305 305 305 305 305 306 307 308 310 311 312 311 310 308 308 309 310 310 311 311 311 311 311 311 311 312 314 316 317 320 322 323 323 322 321 320 320 321 322 322 322 321 320 320 320 319 319 319 319 319 319 319 319 318 318 317 315 314 312 310 309 307 306 305
294 296 297 298 299 301 302 303 304 305 306 306 307 306 306 305 305 304 304 304 304 304 304 304 304 305 305 305 306 308 310 312 312 311 310 308 308 309 310 310 311 311 311 311 311 311 312 313 315 316 318 321 323 324 324 322 322 322 322 323 325 325 326 325 324 324 324 323 323 323 323 322 322 322 321 320 319 318 317 315 313 311 309 308 307 306
294 296 297 298 299 300 302 303 304 305 305 306 306 305 305 304 304 303 303 303 304 304 304 304 304 304 305 306 307 308 310 312 312 311 310 309 309 309 310 310 310 310 310 310 310 310 311 313 314 316 318 321 324 325 324 323 323 324 325 326 328 329 329 328 328 327 327 327 327 326 326 325 324 324 323 322 320 318 317 315 313 311 310 308 308 307
295 296 297 298 300 301 302 303 304 304 305 305 305 304 304 304 304 304 304 304 304 303 303 304 304 305 305 306 307 309 310 311 311 311 310 309 309 309 310 310 310 310 309 309 309 309 310 312 314 316 319 321 323 325 325 325 325 326 328 329 331 332 332 331 330 330 330 330 329 329 328 327 326 326 324 323 321 319 317 315 313 311 310 309 309 309
295 296 297 299 300 301 302 302 303 304 304 304 304 304 304 304 304 304 303 304 304 304 304 304 304 305 306 307 308 309 310 311 311 310 309 309 309 309 309 309 309 309 308 308 309 309 309 311 314 316 318 320 322 324 325 326 327 328 330 332 334 334 334 333 332 331 331 331 331 331 330 329 328 327 326 324 322 320 318 316 314 312 311 311 311 311
295 296 297 298 300 301 301 302 303 303 304 304 304 304 304 303 303 303 303 303 303 303 304 304 304 305 306 307 308 309 310 311 310 309 309 308 307 307 307 307 307 307 307 307 307 308 309 311 314 316 318 319 321 323 325 326 328 329 332 334 335 335 335 333 332 332 332 332 332 332 331 330 330 329 328 326 324 322 320 318 316 314 313 313 313 314
295 296 297 299 300 301 301 302 303 303 303 303 303 303 303 303 303 302 303 303 303 303 303 304 304 305 305 306 307 308 309 310 309 309 307 306 306 305 305 305 305 305 305 305 306 307 309 311 314 316 317 319 321 323 325 327 328 330 332 334 336 336 335 334 332 332 332 332 332 332 332 331 331 330 329 328 326 324 322 320 319 318 317 316 316 316
295 296 298 299 300 301 301 302 302 302 303 302 302 302 302 302 301 301 302 302 302 302 303 303 304 304 305 306 306 307 308 308 307 307 306 304 304 303 303 302 302 303 303 304 305 307 309 311 314 316 317 318 319 322 325 327 328 330 332 334 336 337 336 334 333 332 332 332 332 332 332 332 332 331 331 330 328 327 326 324 323 321 320 319 319 318
296 297 298 299 300 300 301 301 302 302 302 301 301 301 300 300 301 301 301 301 302 302 302 302 303 303 304 304 305 306 306 306 305 305 304 303 302 301 301 300 301 301 302 303 305 307 309 312 313 315 316 317 319 322 325 327 328 329 331 333 336 337 336 334 333 332 331 331 331 331 331 332 332 333 333 332 332 331 330 329 328 326 325 323 321 319
296 297 298 299 299 300 300 301 301 301 301 300 300 300 299 300 300 300 300 301 301 301 301 302 302 302 303 303 304 304 304 304 304 303 303 302 301 300 299 299 299 300 301 303 305 307 309 311 312 314 315 316 318 322 325 327 328 328 330 332 335 337 337 335 333 332 331 331 331 331 331 332 333 334 335 336 336 335 334 333 332 330 328 326 324 322
296 297 298 298 299 299 300 300 300 300 299 299 299 298 298 299 299 299 299 300 300 300 301 301 301 302 302 303 303 304 304 303 303 302 301 300 299 298 297 298 298 299 301 303 305 307 308 310 311 312 314 316 318 321 324 327 328 328 329 331 333 335 337 335 333 332 331 331 331 331 331 332 334 336 337 339 339 338 338 336 334 332 330 328 326 324
296 296 297 298 298 299 299 299 299 298 298 298 297 297 298 298 298 298 298 299 299 300 300 300 301 301 302 302 303 303 303 303 302 301 300 298 297 296 296 296 297 298 300 302 304 305 307 308 310 312 314 316 318 320 323 325 326 328 329 330 332 334 335 335 334 332 332 331 331 331 331 333 335 337 339 340 341 341 340 338 335 333 331 330 328 327
295 296 297 298 298 298 298 298 298 297 297 297 297 297 297 297 297 297 298 298 299 300 300 301 301 301 302 302 303 303 303 302 301 300 299 297 295 294 294 295 296 298 300 301 303 304 306 308 310 312 314 316 318 320 322 324 326 327 329 330 331 332 333 334 333 332 331 331 331 331 332 334 336 338 340 342 343 342 341 339 336 334 333 332 331 331
295 296 297 298 298 298 298 298 297 296 296 296 296 296 296 296 297 297 298 299 299 300 300 301 301 302 302 302 303 303 302 302 301 299 298 296 294 293 293 294 296 298 299 301 303 304 306 308 311 313 314 316 317 319 321 323 325 327 328 329 330 331 332 333 332 332 331 331 331 332 333 335 337 339 341 343 344 343 341 339 336 335 335 335 335 334
296 297 297 298 298 298 297 296 296 295 295 295 295 295 296 296 297 297 298 299 300 300 301 301 302 302 302 303 303 303 302 301 300 298 296 295 293 293 293 294 296 298 299 301 303 305 307 309 311 313 314 315 317 319 321 322 324 326 327 328 329 330 331 332 332 331 332 332 333 333 335 336 338 340 342 344 344 343 341 339 337 337 337 337 337 337
296 297 297 297 297 296 295 295 294 294 294 294 294 295 295 296 296 297 298 299 299 300 301 301 301 302 302 303 303 302 302 301 299 297 295 293 292 292 293 294 296 298 299 301 303 305 308 311 312 313 313 314 316 318 321 322 323 324 325 327 328 329 330 331 331 332 332 333 334 335 336 337 339 340 342 343 343 342 341 339 338 338 339 340 340 339
296 296 296 295 295 294 294 293 293 293 293 293 294 294 295 296 296 297 298 298 299 300 300 301 301 301 302 303 303 302 301 300 299 296 294 292 291 291 293 294 296 297 299 300 302 305 309 311 313 313 314 315 316 318 320 321 321 322 324 325 327 328 330 331 332 333 334 335 336 337 338 338 339 340 341 342 342 341 340 339 339 339 340 341 341 341
294 294 294 293 293 292 292 292 292 292 292 293 294 294 295 295 296 297 297 298 298 299 299 300 301 301 302 302 302 302 301 300 298 296 293 291 290 291 293 294 295 296 298 299 302 305 309 311 313 314 314 315 316 317 319 319 320 321 322 324 326 328 330 332 333 335 336 337 338 338 338 338 338 339 339 339 339 340 340 340 340 340 341 342 342 342
292 292 292 291 291 290 290 290 291 291 292 293 294 294 295 295 296 296 296 297 298 298 299 300 300 301 301 301 301 301 300 299 297 295 292 291 290 291 292 293 294 295 296 299 302 305 308 310 312 314 314 315 316 317 318 318 319 320 322 323 326 328 330 333 335 337 338 339 339 339 338 338 337 337 337 337 338 338 339 340 341 341 341 342 343 343
291 291 290 290 289 289 289 290 290 291 292 293 294 294 295 295 295 295 295 296 297 298 299 299 300 301 301 301 300 299 298 297 295 293 292 291 291 291 292 293 293 294 295 298 300 303 305 308 311 313 314 315 316 317 318 318 318 320 322 324 326 329 331 334 337 339 339 340 339 338 338 337 336 335 335 335 336 338 339 340 341 342 342 342 343 343
290 289 289 289 288 288 289 289 290 291 292 293 294 294 294 294 294 294 295 296 297 298 298 299 300 300 300 300 299 299 297 296 294 292 291 291 292 292 292 292 293 293 295 298 300 302 304 305 308 312 316 316 317 319 319 318 318 320 322 325 327 330 332 335 337 339 340 339 339 338 337 336 335 335 334 335 336 337 339 341 342 342 342 342 343 343
Height
3097 3096 3096 3095 3095 3094 3094 3093 3092 3091 3090 3090 3089 3088 3086 3086 3085 3084 3083 3081 3080 3079 3077 3076 3075 3074 3072 3071 3069 3068 3066 3065 3063 3061 3060 3058 3057 3056 3054 3052 3051 3049 3047 3046 3043 3041 3039 3037 3035 3033 3031 3028 3026 3025 3023 3021 3019 3017 3016 3014 3012 3011 3009 3007 3006 3004 3003 3001 3000 2999 2997 2996 2995 2994 2992 2991 2990 2989 2988 2987 2986 2985 2984 2983 2982 2981
3094 3094 3093 3093 3092 3091 3091 3091 3090 3088 3087 3087 3086 3085 3084 3083 3082 3081 3080 3079 3078 3076 3075 3074 3072 3071 3070 3068 3066 3065 3063 3061 3060 3058 3057 3055 3054 3052 3051 3049 3048 3046 3044 3042 3040 3038 3036 3034 3031 3029 3027 3025 3023 3021 3019 3017 3015 3013 3011 3010 3008 3006 3005 3003 3002 3000 2999 2997 2996 2995 2993 2992 2991 2990 2989 2987 2986 2985 2984 2983 2982 2981 2980 2979 2978 2977
3091 3091 3091 3090 3089 3089 3088 3088 3087 3086 3085 3084 3083 3082 3081 3080 3079 3079 3077 3076 3075 3074 3072 3071 3069 3068 3066 3065 3063 3061 3060 3058 3056 3055 3053 3051 3050 3048 3046 3045 3044 3042 3041 3039 3037 3035 3032 3030 3028 3026 3023 3021 3019 3017 3015 3013 3011 3009 3007 3006 3004 3002 3001 2999 2998 2996 2995 2993 2992 2991 2990 2988 2987 2986 2985 2983 2982 2981 2981 2979 2978 2977 2976 2976 2974 2973
3089 3088 3087 3087 3086 3086 3085 3084 3083 3082 3081 3081 3080 3079 3078 3077 3076 3075 3074 3073 3072 3071 3069 3068 3066 3064 3062 3061 3059 3058 3056 3054 3052 3051 3049 3047 3045 3044 3042 3040 3039 3037 3036 3034 3032 3031 3028 3026 3024 3022 3020 3018 3016 3013 3011 3009 3007 3006 3004 3002 3000 2999 2997 2996 2994 2992 2991 2990 2988 2987 2986 2984 2983 2982 2981 2980 2979 2978 2977 2975 2974 2973 2972 2971 2970 2969
3086 3085 3084 3084 3083 3082 3082 3081 3080 3079 3078 3077 3076 3076 3075 3074 3073 3071 3071 3069 3068 3066 3065 3063 3061 3060 3058 3056 3055 3053 3051 3050 3048 3046 3044 3042 3041 3039 3037 3035 3034 3032 3031 3029 3028 3026 3024 3022 3020 3018 3016 3014 3012 3010 3008 3006 3004 3002 3000 2998 2996 2995 2993 2992 2990 2989 2987 2986 2985 2983 2982 2981 2979 2978 2977 2976 2975 2974 2973 2971 2970 2969 2968 2967 2966 2965
3083 3082 3081 3081 3080 3079 3079 3078 3077 3076 3075 3074 3073 3072 3071 3070 3069 3067 3066 3065 3063 3062 3060 3058 3057 3055 3053 3051 3050 3048 3046 3045 3043 3041 3039 3037 3035 3033 3032 3030 3029 3027 3026 3024 3023 3021 3020 3018 3016 3014 3012 3011 3008 3006 3004 3002 3000 2998 2996 2995 2993 2991 2990 2988 2987 2985 2984 2982 2981 2980 2978 2977 2976 2975 2973 2972 2971 2970 2969 2967 2966 2965 2964 2963 2962 2961
3080 3079 3078 3077 3076 3076 3076 3075 3074 3072 3071 3070 3069 3069 3068 3066 3065 3063 3061 3060 3058 3057 3055 3053 3052 3050 3048 3046 3044 3042 3041 3039 3037 3035 3033 3031 3030 3028 3026 3025 3023 3022 3021 3019 3018 3016 3015 3013 3011 3010 3008 3006 3004 3002 3001 2999 2996 2995 2993 2991 2990 2988 2986 2985 2983 2982 2981 2979 2978 2976 2975 2974 2972 2971 2970 2968 2967 2966 2965 2964 2962 2961 2960 2959 2958 2956
3077 3076 3076 3075 3073 3073 3072 3072 3071 3069 3068 3066 3065 3064 3064 3062 3061 3059 3057 3056 3054 3052 3050 3048 3047 3045 3043 3041 3039 3037 3035 3033 3031 3030 3028 3026 3024 3022 3021 3019 3018 3016 3015 3013 3012 3011 3009 3008 3006 3005 3003 3001 3000 2998 2996 2994 2993 2991 2989 2987 2986 2984 2983 2981 2980 2978 2977 2976 2974 2973 2971 2970 2969 2968 2966 2965 2964 2962 2961 2960 2959 2958 2956 2956 2954 2953
3074 3073 3073 3072 3071 3070 3069 3069 3068 3066 3065 3063 3061 3060 3059 3057 3056 3055 3054 3052 3050 3047 3045 3043 3042 3040 3039 3037 3035 3032 3030 3028 3026 3024 3022 3020 3018 3017 3015 3014 3012 3011 3010 3008 3006 3005 3004 3002 3001 2999 2997 2996 2994 2993 2991 2990 2988 2987 2985 2984 2982 2981 2979 2978 2976 2975 2974 2972 2971 2970 2968 2967 2966 2964 2963 2961 2960 2959 2957 2956 2955 2954 2953 2951 2950 2949
3071 3071 3069 3069 3068 3067 3066 3065 3064 3063 3061 3059 3057 3056 3054 3052 3051 3049 3048 3048 3046 3044 3041 3039 3037 3036 3034 3032 3031 3028 3026 3024 3022 3020 3018 3015 3013 3011 3010 3009 3007 3006 3004 3003 3001 3000 2999 2997 2996 2994 2992 2991 2990 2988 2987 2985 2984 2983 2981 2980 2978 2977 2976 2974 2973 2971 2970 2969 2967 2966 2965 2963 2962 2961 2959 2958 2957 2955 2954 2953 2951 2950 2949 2947 2946 2945
3068 3067 3066 3065 3065 3064 3062 3061 3060 3059 3058 3056 3054 3052 3051 3048 3046 3044 3043 3042 3041 3040 3038 3036 3033 3031 3029 3027 3026 3024 3022 3020 3017 3015 3013 3011 3009 3007 3005 3004 3002 3001 2999 2998 2996 2995 2994 2992 2991 2989 2988 2986 2985 2984 2982 2981 2980 2978 2977 2976 2975 2973 2972 2971 2969 2968 2966 2965 2964 2962 2961 2960 2958 2957 2956 2954 2953 2952 2950 2949 2947 2946 2945 2943 2942 2941
3066 3065 3063 3062 3061 3060 3059 3058 3056 3055 3054 3052 3050 3049 3047 3046 3043 3041 3038 3037 3036 3035 3033 3031 3030 3028 3025 3023 3021 3019 3017 3015 3013 3011 3009 3007 3005 3002 3001 2999 2998 2996 2995 2994 2992 2991 2990 2988 2987 2985 2984 2982 2981 2980 2978 2977 2976 2974 2973 2972 2971 2969 2968 2966 2965 2964 2962 2961 2960 2958 2957 2956 2954 2953 2952 2951 2949 2948 2946 2945 2944 2942 2941 2939 2938 2937
3063 3061 3060 3059 3058 3057 3056 3054 3053 3051 3050 3048 3046 3045 3043 3042 3040 3038 3035 3033 3031 3030 3028 3026 3025 3024 3022 3019 3016 3014 3012 3010 3008 3006 3004 3002 3000 2998 2996 2995 2993 2992 2991 2990 2988 2987 2986 2985 2983 2981 2980 2979 2977 2976 2974 2973 2972 2971 2969 2968 2966 2965 2964 2963 2961 2960 2958 2957 2956 2954 2953 2951 2950 2949 2947 2946 2945 2943 2942 2941 2939 2938 2936 2935 2934 2933
3060 3059 3057 3056 3055 3054 3052 3051 3049 3048 3046 3045 3043 3041 3039 3038 3036 3034 3032 3030 3028 3027 3025 3022 3021 3019 3018 3016 3012 3010 3007 3005 3003 3002 3000 2998 2996 2994 2992 2991 2989 2988 2988 2986 2984 2983 2982 2981 2979 2977 2976 2975 2974 2972 2971 2969 2968 2967 2966 2964 2963 2961 2960 2958 2957 2956 2954 2953 2951 2950 2948 2947 2946 2944 2943 2941 2940 2939 2937 2936 2935 2933 2932 2931 2929 2928
3057 3056 3054 3053 3052 3051 3049 3047 3046 3044 3043 3042 3040 3038 3036 3035 3033 3031 3029 3026 3024 3023 3021 3019 3017 3016 3014 3012 3009 3006 3003 3001 2999 2997 2996 2995 2993 2991 2989 2987 2985 2984 2984 2983 2981 2979 2978 2977 2975 2973 2972 2971 2970 2969 2967 2966 2965 2963 2962 2960 2959 2957 2956 2954 2953 2951 2950 2948 2947 2946 2944 2942 2941 2940 2938 2937 2936 2934 2933 2931 2930 2929 2927 2926 2925 2923
3054 3053 3051 3050 3049 3048 3046 3044 3042 3041 3040 3038 3037 3035 3033 3031 3029 3027 3025 3023 3021 3019 3017 3015 3012 3011 3010 3009 3006 3003 3000 2996 2994 2993 2992 2991 2989 2988 2986 2984 2981 2980 2980 2979 2977 2975 2974 2972 2971 2970 2969 2967 2966 2965 2964 2962 2961 2960 2958 2956 2955 2953 2952 2951 2949 2947 2946 2944 2943 2941 2940 2938 2937 2935 2934 2932 2931 2930 2928 2927 2925 2924 2923 2921 2920 2919
3051 3050 3048 3047 3046 3045 3043 3041 3040 3038 3036 3035 3033 3031 3030 3028 3026 3024 3021 3019 3017 3015 3012 3011 3008 3006 3005 3004 3003 3001 2997 2993 2990 2988 2988 2987 2986 2985 2983 2981 2978 2976 2976 2975 2974 2972 2970 2968 2967 2966 2965 2964 2963 2962 2961 2959 2958 2956 2955 2953 2951 2950 2948 2947 2945 2944 2942 2941 2939 2937 2936 2934 2933 2931 2930 2928 2926 2925 2924 2922 2921 2920 2918 2917 2916 2914
3048 3046 3045 3044 3042 3041 3040 3038 3037 3035 3033 3031 3030 3028 3026 3025 3023 3020 3018 3016 3013 3011 3009 3007 3005 3002 3001 2999 2997 2996 2994 2991 2987 2984 2983 2983 2982 2981 2980 2977 2975 2973 2972 2971 2970 2968 2966 2965 2964 2963 2962 2961 2960 2959 2957 2956 2955 2953 2951 2950 2948 2946 2945 2943 2942 2940 2938 2937 2935 2934 2932 2930 2929 2927 2926 2924 2922 2921 2920 2918 2917 2915 2914 2912 2911 2910
3045 3044 3042 3041 3039 3038 3037 3035 3034 3032 3030 3028 3026 3025 3023 3021 3020 3017 3015 3012 3010 3008 3006 3003 3001 2999 2997 2995 2993 2992 2990 2987 2984 2981 2979 2978 2978 2978 2977 2975 2972 2970 2968 2968 2967 2965 2963 2962 2961 2960 2959 2958 2957 2956 2955 2953 2951 2950 2948 2946 2945 2943 2941 2940 2938 2937 2935 2933 2932 2930 2928 2927 2925 2923 2922 2920 2919 2917 2916 2914 2913 2911 2910 2908 2907 2906
3041 3041 3039 3038 3036 3034 3033 3032 3031 3029 3026 3025 3023 3021 3019 3018 3016 3014 3012 3009 3007 3005 3002 3000 2998 2996 2994 2992 2990 2988 2986 2984 2981 2978 2976 2975 2975 2974 2974 2971 2968 2966 2965 2965 2964 2962 2960 2959 2958 2957 2956 2956 2954 2953 2951 2950 2948 2947 2945 2943 2941 2940 2938 2936 2935 2933 2932 2930 2928 2926 2925 2923 2921 2920 2918 2916 2915 2913 2912 2910 2909 2907 2906 2904 2903 2901
3039 3037 3036 3035 3033 3031 3030 3029 3028 3026 3024 3021 3020 3018 3016 3014 3012 3010 3008 3006 3004 3001 2999 2997 2995 2993 2991 2989 2986 2985 2983 2981 2978 2975 2971 2971 2971 2971 2971 2968 2965 2963 2962 2961 2961 2960 2958 2956 2955 2954 2954 2953 2951 2950 2949 2947 2946 2944 2942 2940 2938 2937 2935 2933 2932 2930 2928 2926 2925 2923 2921 2919 2918 2916 2914 2912 2911 2909 2907 2906 2904 2903 2901 2900 2898 2897
3035 3035 3034 3032 3030 3028 3027 3026 3025 3023 3021 3019 3016 3014 3012 3011 3009 3006 3004 3002 3001 2998 2996 2994 2992 2990 2988 2986 2984 2982 2980 2978 2975 2971 2968 2966 2966 2967 2968 2966 2962 2960 2958 2958 2957 2956 2955 2954 2952 2952 2951 2950 2949 2947 2946 2944 2942 2941 2939 2937 2935 2934 2932 2930 2929 2927 2925 2923 2921 2919 2918 2916 2914 2912 2911 2909 2907 2905 2903 2902 2900 2899 2897 2896 2894 2893
3032 3031 3030 3029 3027 3026 3024 3023 3021 3020 3018 3016 3013 3011 3009 3007 3005 3003 3001 2999 2997 2995 2993 2991 2989 2987 2985 2984 2981 2979 2977 2975 2971 2968 2965 2963 2962 2963 2964 2963 2960 2957 2955 2956 2955 2953 2951 2951 2950 2949 2948 2947 2946 2945 2943 2941 2940 2937 2936 2934 2932 2931 2929 2927 2925 2923 2921 2920 2918 2916 2914 2912 2910 2908 2906 2905 2903 2901 2900 2898 2896 2895 2893 2891 2890 2889
3029 3028 3027 3026 3024 3023 3021 3020 3018 3016 3015 3013 3011 3008 3006 3004 3002 3000 2997 2996 2994 2991 2989 2987 2985 2984 2982 2981 2979 2976 2974 2972 2970 2966 2963 2961 2960 2960 2960 2959 2956 2953 2952 2952 2952 2950 2948 2947 2947 2946 2945 2944 2943 2942 2940 2938 2936 2935 2933 2931 2929 2927 2926 2924 2922 2920 2918 2916 2914 2912 2910 2909 2907 2905 2903 2901 2899 2897 2896 2894 2892 2891 2889 2887 2886 2884
3026 3026 3024 3023 3021 3020 3018 3016 3015 3013 3011 3009 3007 3005 3003 3001 2998 2996 2994 2992 2990 2988 2985 2983 2981 2980 2979 2977 2975 2973 2972 2970 2968 2965 2962 2959 2956 2956 2957 2956 2953 2950 2948 2949 2949 2947 2945 2944 2944 2943 2942 2941 2940 2939 2937 2936 2934 2931 2930 2928 2926 2924 2922 2921 2918 2916 2915 2913 2911 2909 2907 2905 2903 2901 2900 2898 2896 2894 2892 2891 2889 2887 2885 2883 2882 2881
3024 3022 3021 3020 3018 3016 3015 3013 3011 3010 3007 3006 3003 3001 2999 2997 2995 2993 2991 2989 2987 2985 2982 2980 2977 2976 2975 2974 2973 2971 2970 2968 2966 2963 2961 2957 2954 2952 2953 2953 2951 2948 2945 2945 2946 2945 2942 2941 2941 2940 2940 2939 2938 2936 2935 2933 2931 2929 2927 2925 2923 2921 2919 2917 2915 2913 2911 2909 2907 2906 2904 2902 2900 2898 2896 2895 2893 2891 2889 2887 2885 2883 2881 2880 2878 2877
3020 3019 3018 3016 3015 3013 3011 3010 3008 3006 3004 3001 2999 2997 2995 2993 2991 2989 2987 2985 2983 2981 2978 2976 2974 2973 2972 2971 2970 2969 2968 2966 2963 2961 2958 2955 2952 2950 2950 2949 2947 2945 2943 2942 2942 2941 2940 2938 2937 2937 2937 2936 2935 2934 2932 2930 2927 2926 2924 2922 2920 2918 2916 2914 2912 2910 2908 2906 2905 2903 2901 2899 2897 2896 2894 2892 2890 2888 2886 2884 2882 2880 2878 2876 2874 2873
3017 3015 3014 3012 3011 3009 3008 3006 3004 3002 3000 2998 2996 2994 2992 2990 2988 2986 2983 2982 2980 2978 2975 2973 2972 2970 2968 2967 2967 2966 2966 2964 2961 2958 2955 2953 2950 2948 2947 2946 2944 2942 2940 2938 2938 2938 2938 2936 2935 2934 2934 2934 2932 2931 2929 2927 2925 2922 2921 2919 2917 2915 2913 2911 2910 2908 2906 2904 2902 2901 2899 2897 2895 2893 2891 2889 2887 2885 2883 2881 2878 2876 2874 2872 2871 2869
3013 3012 3011 3009 3008 3006 3004 3002 3001 2999 2997 2995 2993 2991 2989 2987 2985 2983 2981 2979 2977 2975 2973 2971 2969 2968 2966 2964 2963 2963 2963 2962 2960 2956 2953 2950 2947 2945 2945 2944 2941 2940 2938 2935 2934 2934 2935 2935 2933 2932 2931 2931 2930 2928 2926 2924 2922 2920 2918 2916 2915 2913 2911 2909 2907 2906 2904 2902 2900 2898 2896 2895 2893 2891 2889 2886 2885 2882 2880 2878 2875 2873 2871 2869 2867 2866
3010 3009 3007 3006 3004 3003 3001 2999 2997 2996 2994 2992 2990 2988 2986 2983 2982 2980 2978 2976 2974 2972 2970 2968 2967 2965 2963 2961 2959 2959 2959 2960 2958 2954 2951 2947 2944 2942 2942 2941 2939 2937 2936 2933 2930 2929 2931 2932 2932 2930 2929 2928 2927 2925 2923 2921 2919 2917 2916 2914 2913 2911 2909 2907 2905 2904 2902 2900 2898 2896 2894 2892 2890 2888 2886 2884 2882 2880 2878 2875 2872 2870 2867 2865 2864 2862
3007 3005 3004 3002 3001 2999 2997 2996 2994 2992 2990 2988 2986 2985 2983 2981 2979 2977 2975 2973 2971 2970 2968 2966 2964 2963 2961 2959 2957 2955 2955 2956 2955 2952 2948 2945 2941 2940 2940 2938 2936 2935 2934 2931 2928 2926 2925 2926 2928 2928 2927 2926 2924 2923 2921 2919 2916 2915 2913 2912 2910 2909 2907 2905 2903 2901 2900 2898 2896 2894 2892 2890 2888 2886 2884 2882 2880 2878 2875 2873 2870 2867 2864 2862 2860 2859
3003 3002 3000 2999 2997 2995 2994 2992 2990 2988 2986 2985 2983 2982 2980 2978 2976 2974 2972 2971 2969 2967 2965 2963 2962 2960 2959 2957 2955 2953 2952 2952 2951 2948 2945 2942 2939 2938 2938 2936 2934 2932 2931 2930 2928 2925 2922 2921 2923 2924 2924 2923 2922 2920 2919 2917 2915 2913 2911 2910 2908 2907 2905 2903 2901 2899 2898 2896 2894 2892 2891 2888 2886 2884 2882 2880 2878 2876 2873 2871 2868 2865 2862 2859 2857 2856
2999 2998 2996 2995 2993 2991 2990 2988 2986 2985 2983 2981 2980 2978 2977 2975 2973 2971 2970 2968 2966 2965 2963 2961 2959 2957 2956 2954 2953 2951 2951 2950 2948 2945 2942 2939 2937 2935 2935 2934 2932 2930 2929 2928 2926 2925 2922 2920 2919 2920 2920 2920 2919 2918 2916 2915 2913 2911 2909 2907 2906 2904 2903 2901 2899 2897 2896 2894 2892 2890 2889 2886 2885 2882 2881 2878 2876 2874 2871 2869 2866 2863 2860 2857 2855 2853
2995 2994 2993 2991 2989 2988 2986 2985 2983 2981 2980 2978 2977 2975 2973 2971 2970 2968 2967 2965 2963 2962 2960 2959 2957 2955 2953 2951 2949 2948 2948 2947 2946 2942 2939 2937 2935 2933 2931 2931 2930 2928 2926 2925 2924 2923 2921 2920 2918 2917 2916 2916 2917 2916 2914 2913 2911 2909 2907 2906 2904 2902 2900 2898 2896 2895 2893 2892 2890 2888 2886 2885 2883 2881 2879 2876 2874 2872 2870 2867 2864 2862 2859 2856 2853 2851
2991 2990 2989 2987 2986 2984 2982 2981 2979 2978 2976 2975 2973 2971 2970 2968 2967 2965 2964 2962 2961 2959 2957 2956 2954 2952 2950 2948 2946 2945 2944 2944 2943 2940 2937 2935 2933 2931 2929 2928 2927 2926 2924 2923 2922 2921 2919 2918 2917 2916 2914 2914 2914 2914 2913 2911 2909 2907 2906 2904 2902 2900 2898 2896 2894 2892 2891 2890 2888 2886 2884 2882 2881 2879 2877 2875 2872 2870 2868 2865 2863 2860 2857 2855 2852 2849
2987 2986 2985 2983 2982 2980 2978 2977 2976 2974 2972 2971 2969 2968 2966 2965 2964 2962 2961 2960 2958 2956 2955 2953 2951 2949 2948 2946 2944 2942 2941 2941 2940 2938 2936 2933 2931 2929 2927 2926 2925 2924 2922 2921 2920 2919 2917 2916 2916 2915 2913 2911 2911 2911 2911 2909 2908 2906 2904 2902 2901 2899 2896 2894 2892 2891 2889 2887 2886 2884 2882 2881 2879 2877 2875 2873 2871 2868 2866 2864 2861 2858 2856 2854 2851 2848
2983 2982 2981 2979 2978 2976 2975 2973 2972 2971 2969 2967 2966 2964 2963 2962 2961 2959 2958 2957 2955 2954 2952 2951 2949 2947 2945 2943 2941 2940 2939 2937 2936 2935 2933 2931 2929 2927 2926 2924 2923 2923 2921 2919 2918 2917 2916 2914 2913 2912 2911 2910 2909 2908 2907 2906 2906 2904 2903 2901 2899 2897 2895 2893 2891 2889 2887 2886 2884 2882 2881 2879 2877 2875 2873 2871 2869 2866 2864 2862 2859 2857 2854 2852 2850 2848
2980 2978 2977 2975 2974 2972 2971 2969 2968 2967 2966 2964 2962 2961 2960 2959 2958 2956 2955 2954 2952 2951 2950 2948 2946 2945 2943 2941 2940 2938 2937 2936 2934 2933 2931 2929 2928 2926 2924 2922 2921 2921 2920 2918 2916 2915 2914 2912 2911 2910 2909 2908 2907 2906 2905 2904 2902 2901 2901 2900 2898 2896 2894 2891 2890 2887 2886 2884 2883 2881 2879 2877 2875 2873 2871 2869 2866 2864 2862 2860 2857 2855 2852 2851 2849 2847
2976 2974 2973 2971 2970 2969 2967 2966 2964 2963 2962 2961 2959 2958 2957 2956 2955 2953 2952 2951 2950 2948 2947 2946 2944 2942 2941 2940 2938 2936 2935 2934 2932 2931 2929 2927 2926 2924 2922 2921 2920 2919 2918 2917 2915 2914 2912 2911 2909 2908 2907 2906 2905 2905 2903 2902 2900 2898 2898 2897 2897 2896 2893 2891 2888 2886 2885 2883 2881 2879 2878 2876 2874 2872 2869 2867 2864 2861 2859 2856 2854 2852 2850 2848 2846 2845
2972 2971 2969 2968 2966 2965 2964 2962 2961 2960 2958 2957 2956 2955 2954 2953 2952 2951 2949 2948 2947 2946 2944 2943 2941 2940 2938 2937 2936 2934 2933 2931 2930 2929 2927 2925 2923 2922 2920 2919 2918 2917 2916 2915 2914 2912 2911 2909 2908 2906 2905 2904 2903 2902 2901 2900 2898 2896 2895 2894 2894 2893 2892 2890 2887 2885 2883 2881 2879 2878 2876 2874 2872 2870 2868 2865 2862 2859 2856 2854 2851 2849 2847 2846 2844 2842
2968 2967 2966 2964 2963 2961 2960 2959 2957 2956 2955 2954 2953 2952 2951 2950 2949 2948 2946 2946 2944 2943 2941 2940 2938 2937 2936 2935 2934 2932 2931 2929 2928 2926 2925 2923 2921 2920 2918 2917 2916 2915 2914 2913 2912 2911 2909 2908 2906 2905 2904 2902 2901 2900 2899 2898 2897 2895 2893 2892 2891 2890 2890 2888 2886 2884 2882 2880 2878 2876 2874 2872 2871 2869 2866 2864 2861 2858 2855 2852 2849 2847 2845 2843 2841 2839
2964 2963 2962 2961 2959 2958 2957 2956 2954 2953 2952 2951 2950 2949 2948 2947 2946 2945 2944 2943 2942 2940 2939 2937 2936 2934 2933 2932 2931 2930 2929 2927 2926 2924 2922 2921 2920 2918 2916 2915 2914 2913 2912 2911 2911 2910 2908 2907 2905 2904 2902 2901 2899 2898 2897 2896 2895 2894 2892 2890 2888 2887 2887 2886 2885 2883 2881 2879 2876 2875 2873 2871 2869 2867 2865 2862 2859 2856 2853 2851 2848 2846 2843 2841 2839 2837
2960 2959 2958 2957 2956 2954 2953 2952 2951 2950 2949 2948 2947 2946 2945 2944 2943 2942 2941 2940 2938 2937 2936 2934 2932 2931 2930 2929 2928 2927 2926 2925 2923 2922 2920 2919 2917 2916 2915 2914 2913 2912 2911 2910 2909 2908 2907 2906 2904 2902 2901 2899 2898 2896 2896 2895 2894 2892 2891 2889 2887 2885 2884 2884 2883 2881 2880 2877 2875 2873 2871 2869 2867 2865 2863 2861 2858 2855 2852 2850 2847 2845 2842 2840 2837 2835
2956 2955 2954 2953 2952 2951 2950 2949 2948 2947 2946 2946 2945 2944 2942 2941 2940 2939 2938 2936 2935 2934 2932 2931 2929 2927 2926 2926 2925 2924 2923 2922 2921 2920 2918 2916 2915 2914 2913 2912 2911 2910 2909 2908 2907 2906 2905 2904 2903 2901 2900 2898 2896 2895 2894 2892 2891 2890 2889 2887 2886 2884 2882 2881 2880 2879 2877 2876 2874 2871 2869 2867 2865 2863 2861 2859 2856 2854 2851 2849 2846 2844 2841 2838 2836 2833
2952 2951 2950 2949 2948 2947 2946 2946 2945 2944 2943 2943 2942 2941 2940 2938 2937 2936 2935 2933 2931 2930 2929 2927 2926 2925 2923 2923 2922 2921 2921 2920 2919 2917 2916 2914 2913 2912 2911 2910 2909 2908 2907 2906 2906 2905 2903 2902 2901 2900 2898 2897 2896 2894 2892 2891 2889 2888 2887 2886 2885 2883 2881 2880 2878 2876 2875 2873 2871 2869 2867 2865 2863 2861 2859 2856 2855 2853 2850 2847 2845 2842 2840 2837 2834 2832
2948 2947 2946 2946 2945 2944 2944 2943 2942 2941 2941 2940 2939 2938 2937 2936 2934 2933 2931 2930 2929 2927 2926 2924 2923 2922 2921 2920 2919 2918 2917 2917 2916 2915 2914 2912 2911 2910 2909 2908 2907 2906 2906 2905 2904 2903 2902 2901 2900 2898 2897 2896 2894 2893 2891 2889 2888 2886 2886 2885 2884 2882 2881 2879 2877 2875 2873 2871 2869 2866 2865 2862 2860 2858 2856 2855 2853 2851 2849 2846 2843 2840 2838 2835 2833 2830
2945 2944 2943 2943 2942 2941 2941 2940 2939 2938 2937 2937 2936 2935 2934 2933 2931 2930 2928 2927 2926 2924 2923 2921 2921 2919 2918 2917 2916 2916 2915 2914 2913 2913 2912 2911 2909 2908 2907 2906 2906 2905 2904 2903 2902 2901 2901 2900 2898 2897 2895 2894 2893 2891 2890 2888 2886 2885 2884 2883 2882 2881 2879 2878 2876 2874 2871 2869 2866 2864 2862 2860 2857 2856 2854 2853 2851 2850 2848 2845 2842 2839 2836 2834 2831 2829
2942 2941 2940 2940 2939 2938 2937 2937 2936 2936 2935 2934 2933 2932 2931 2930 2928 2927 2925 2924 2922 2921 2920 2919 2918 2917 2916 2915 2914 2913 2912 2911 2911 2910 2909 2908 2907 2906 2906 2905 2904 2903 2902 2902 2901 2900 2899 2898 2897 2896 2894 2892 2891 2890 2889 2887 2886 2884 2882 2881 2880 2879 2878 2876 2874 2872 2870 2867 2865 2862 2860 2857 2855 2854 2852 2851 2850 2849 2847 2844 2841 2838 2835 2832 2830 2827
2939 2938 2937 2936 2936 2935 2935 2934 2933 2932 2932 2931 2930 2929 2927 2926 2925 2924 2922 2921 2920 2919 2917 2916 2915 2914 2913 2913 2911 2911 2910 2909 2908 2907 2906 2906 2905 2904 2904 2903 2902 2902 2901 2901 2900 2899 2898 2897 2896 2894 2892 2891 2889 2888 2887 2886 2884 2883 2881 2880 2878 2877 2876 2874 2872 2870 2868 2866 2863 2861 2859 2857 2855 2852 2851 2849 2848 2847 2845 2842 2840 2837 2834 2831 2828 2826
2936 2935 2934 2933 2933 2932 2931 2931 2930 2929 2929 2928 2927 2926 2925 2923 2922 2921 2920 2918 2917 2916 2915 2914 2913 2912 2911 2910 2909 2908 2907 2906 2906 2905 2904 2904 2903 2902 2902 2901 2901 2900 2900 2899 2898 2898 2897 2897 2896 2894 2891 2889 2887 2886 2885 2884 2882 2881 2880 2878 2877 2875 2873 2871 2870 2868 2866 2864 2862 2860 2858 2856 2854 2852 2850 2848 2846 2845 2843 2841 2838 2836 2833 2830 2827 2825
2932 2931 2931 2930 2930 2929 2928 2928 2927 2926 2926 2925 2923 2922 2921 2920 2919 2918 2917 2916 2915 2913 2912 2911 2910 2909 2908 2907 2907 2906 2905 2904 2904 2903 2902 2901 2901 2901 2900 2899 2899 2898 2898 2897 2897 2896 2896 2896 2895 2894 2891 2888 2886 2884 2883 2881 2880 2879 2878 2877 2875 2873 2871 2869 2868 2866 2865 2863 2861 2859 2857 2856 2853 2851 2849 2847 2845 2843 2841 2839 2837 2834 2831 2829 2826 2824